Location: Raleigh
(35.7720°N, 78.6390°W)
Time: 22:01:48
(UTC-04:00)

JAS-2 - Visible Passes

Search period start: 14 September 2014 00:00
Search period end: 24 September 2014 00:00
Orbit: 800 x 1322 km, 98.5° (Epoch: 13 September)

Date Brightness Start Highest point End Pass type
(mag) Time Alt. Az. Time Alt. Az. Time Alt. Az.
14 Sep 12.3 06:00:55 10° NE 06:05:16 21° E 06:09:57 10° SE visible
14 Sep 12.2 19:41:46 10° SW 19:45:25 18° W 19:48:56 10° NW visible
16 Sep 12.4 05:56:06 10° NE 06:00:22 19° E 06:04:57 10° SE visible
18 Sep 12.5 05:51:18 10° NE 05:55:29 18° E 05:59:56 10° SE visible
20 Sep 12.6 05:46:32 10° NE 05:50:35 17° E 05:54:54 10° SE visible
21 Sep 11.0 06:34:53 10° NNE 06:40:54 46° E 06:47:37 10° S visible
22 Sep 12.6 05:41:47 10° NE 05:45:42 16° E 05:49:51 10° SE visible
23 Sep 11.2 06:29:59 10° NNE 06:36:02 44° E 06:42:47 10° S visible
